Temp
-11 -11 -11 -11 -11 -11 -11 -11 -11 -11 -12 -12 -12 -12 -13 -13 -13 -13 -13 -13 -13 -13 -13 -13 -12 -13 -14 -14 -14 -14 -14 -14
-11 -11 -12 -11 -11 -11 -11 -11 -12 -12 -12 -12 -12 -13 -13 -13 -13 -13 -13 -13 -13 -13 -13 -13 -14 -14 -15 -15 -15 -15 -15 -15
-11 -11 -11 -12 -12 -12 -12 -12 -12 -12 -13 -13 -13 -13 -13 -13 -13 -13 -13 -13 -14 -14 -14 -15 -15 -15 -16 -16 -15 -15 -16 -16
-12 -11 -11 -12 -12 -12 -12 -12 -12 -13 -13 -13 -13 -13 -13 -13 -14 -13 -14 -14 -15 -15 -15 -16 -16 -16 -16 -16 -16 -16 -17 -17
-12 -12 -12 -12 -12 -13 -13 -13 -13 -13 -13 -13 -14 -14 -14 -14 -14 -15 -15 -15 -15 -16 -16 -16 -16 -16 -16 -17 -17 -18 -18 -19
-12 -13 -13 -13 -13 -13 -13 -13 -13 -13 -14 -14 -15 -15 -15 -15 -16 -16 -16 -16 -16 -16 -17 -17 -17 -17 -17 -18 -18 -19 -19 -20
-12 -13 -13 -13 -14 -14 -14 -14 -14 -14 -15 -15 -16 -16 -16 -16 -16 -16 -16 -17 -17 -17 -17 -17 -17 -17 -18 -19 -19 -20 -20 -20
-13 -13 -13 -14 -15 -14 -14 -14 -15 -15 -16 -16 -17 -17 -17 -17 -17 -17 -17 -17 -17 -17 -18 -18 -18 -19 -19 -20 -20 -21 -21 -21
-14 -14 -13 -14 -15 -15 -15 -15 -16 -16 -17 -17 -17 -17 -17 -17 -17 -17 -18 -18 -18 -18 -18 -19 -19 -19 -20 -21 -21 -21 -21 -21
-14 -14 -14 -14 -15 -16 -16 -16 -17 -17 -17 -17 -17 -18 -18 -18 -18 -18 -19 -19 -18 -19 -19 -19 -20 -20 -21 -21 -21 -21 -22 -22
-15 -15 -14 -14 -15 -16 -17 -16 -17 -17 -17 -17 -18 -18 -18 -18 -19 -19 -19 -19 -19 -19 -20 -20 -21 -21 -22 -22 -22 -22 -23 -23
-15 -15 -15 -15 -16 -17 -17 -17 -17 -18 -18 -18 -18 -19 -19 -19 -20 -19 -19 -20 -20 -20 -20 -21 -21 -22 -22 -22 -23 -24 -24 -24
-17 -16 -16 -17 -17 -17 -17 -18 -18 -18 -18 -19 -19 -19 -19 -20 -20 -20 -20 -20 -21 -21 -21 -22 -22 -22 -22 -24 -24 -24 -24 -24
-17 -17 -17 -17 -17 -18 -18 -18 -18 -18 -19 -19 -20 -20 -20 -20 -21 -21 -21 -21 -21 -21 -22 -22 -23 -23 -24 -25 -25 -25 -25 -25
-17 -17 -17 -17 -18 -18 -19 -19 -19 -19 -19 -19 -20 -21 -21 -21 -21 -21 -21 -22 -22 -22 -23 -23 -23 -25 -25 -25 -25 -25 -25 -26
-18 -17 -17 -17 -18 -19 -19 -18 -19 -20 -20 -20 -21 -21 -21 -21 -22 -22 -22 -23 -23 -23 -23 -24 -24 -25 -25 -26 -26 -26 -26 -26
-18 -17 -17 -18 -19 -19 -19 -19 -20 -21 -21 -21 -21 -21 -21 -22 -22 -22 -23 -23 -23 -24 -24 -25 -25 -25 -26 -26 -26 -26 -26 -26
-19 -18 -18 -19 -19 -19 -19 -20 -21 -21 -21 -21 -21 -22 -22 -22 -23 -23 -23 -23 -24 -24 -26 -26 -26 -26 -26 -27 -27 -27 -27 -27
-20 -19 -19 -19 -19 -19 -20 -21 -21 -21 -21 -22 -22 -22 -23 -23 -23 -23 -24 -24 -25 -26 -26 -26 -26 -27 -27 -27 -27 -27 -27 -27
Height
5796 5796 5798 5796 5795 5794 5793 5791 5790 5788 5786 5784 5781 5778 5775 5772 5768 5763 5758 5754 5749 5745 5740 5735 5729 5725 5719 5714 5711 5705 5702 5700
5789 5790 5790 5788 5788 5786 5785 5784 5782 5780 5777 5774 5771 5768 5764 5759 5756 5751 5746 5741 5735 5730 5725 5720 5715 5711 5705 5700 5697 5692 5686 5683
5781 5782 5781 5780 5779 5778 5777 5775 5773 5770 5767 5763 5760 5756 5752 5747 5743 5738 5734 5728 5723 5718 5712 5707 5702 5698 5692 5686 5681 5676 5670 5664
5774 5774 5773 5772 5770 5769 5768 5765 5763 5761 5756 5752 5748 5743 5739 5734 5729 5725 5720 5714 5709 5703 5699 5693 5688 5684 5677 5671 5665 5659 5654 5646
5766 5765 5764 5763 5761 5760 5759 5755 5752 5749 5745 5740 5736 5731 5726 5720 5716 5710 5705 5701 5696 5690 5684 5678 5674 5669 5663 5655 5649 5643 5637 5631
5759 5757 5755 5754 5752 5751 5748 5745 5741 5737 5733 5728 5723 5718 5713 5708 5702 5697 5691 5687 5683 5677 5670 5664 5659 5653 5647 5640 5633 5625 5620 5616
5749 5748 5746 5745 5742 5739 5737 5734 5729 5724 5720 5715 5711 5706 5701 5695 5690 5685 5679 5673 5668 5663 5656 5649 5644 5637 5630 5623 5616 5610 5604 5599
5735 5736 5735 5734 5730 5727 5726 5723 5717 5712 5707 5703 5698 5693 5688 5683 5677 5672 5666 5660 5655 5648 5642 5635 5628 5622 5615 5607 5600 5595 5589 5584
5723 5722 5722 5723 5718 5713 5712 5709 5704 5699 5695 5690 5684 5680 5675 5670 5664 5659 5653 5647 5642 5635 5628 5621 5614 5607 5600 5593 5586 5579 5573 5567
5712 5711 5712 5709 5705 5699 5697 5695 5690 5686 5681 5677 5671 5666 5662 5657 5651 5645 5639 5634 5628 5623 5615 5607 5600 5594 5586 5580 5573 5565 5557 5549
5699 5698 5698 5695 5692 5686 5682 5681 5678 5673 5667 5663 5658 5654 5649 5643 5637 5632 5624 5620 5615 5608 5601 5594 5586 5580 5573 5565 5556 5549 5541 5536
5685 5685 5684 5683 5679 5674 5669 5667 5664 5659 5654 5650 5646 5641 5636 5630 5624 5618 5612 5607 5601 5595 5587 5580 5574 5567 5559 5549 5541 5536 5533 5527
5670 5670 5671 5670 5666 5662 5656 5653 5651 5646 5642 5637 5632 5627 5622 5617 5611 5606 5599 5592 5586 5581 5575 5567 5561 5554 5545 5537 5531 5527 5523 5517
5657 5658 5657 5656 5653 5649 5644 5640 5636 5633 5628 5624 5619 5614 5609 5604 5599 5592 5586 5580 5574 5568 5563 5554 5546 5539 5532 5527 5521 5517 5512 5507
5643 5645 5644 5642 5640 5637 5632 5628 5623 5620 5615 5611 5606 5602 5597 5592 5585 5579 5574 5567 5561 5555 5549 5541 5534 5528 5523 5517 5511 5507 5501 5496
5629 5631 5631 5630 5627 5625 5620 5615 5610 5606 5603 5600 5595 5590 5585 5578 5573 5567 5562 5555 5549 5542 5535 5528 5522 5519 5513 5507 5501 5496 5491 5485
5615 5619 5618 5616 5614 5612 5607 5604 5598 5594 5592 5588 5583 5578 5573 5567 5562 5556 5550 5543 5536 5529 5521 5515 5512 5508 5502 5495 5490 5485 5478 5472
5604 5607 5605 5604 5602 5598 5596 5591 5586 5584 5580 5575 5570 5566 5562 5556 5550 5545 5538 5531 5524 5515 5509 5505 5502 5497 5490 5484 5478 5472 5465 5457
5589 5595 5595 5593 5590 5587 5584 5579 5576 5573 5568 5564 5559 5555 5550 5544 5540 5534 5526 5518 5511 5504 5499 5495 5489 5484 5479 5472 5466 5459 5452 5443
Wind_Speed
32 30 29 32 34 34 34 33 34 34 34 38 41 43 45 49 53 54 57 58 58 58 61 65 68 69 68 68 66 64 62 59
31 30 31 35 35 35 36 36 36 36 39 42 44 48 51 54 57 61 62 59 59 63 67 69 68 67 64 60 59 61 65 63
31 31 34 36 36 38 37 39 39 42 43 46 49 52 55 58 62 62 61 62 64 66 67 65 64 61 58 62 60 59 61 62
33 35 36 35 37 39 40 42 45 46 47 49 52 55 58 60 61 61 63 65 66 67 65 63 60 59 58 60 62 64 64 65
30 32 35 37 39 41 42 45 48 49 51 53 55 58 59 59 60 62 63 65 65 63 62 59 58 59 60 64 65 66 65 63
31 33 38 41 41 42 45 50 51 52 54 55 56 57 57 60 60 60 62 61 63 63 60 61 61 61 63 65 66 64 60 58
35 36 39 40 42 46 48 49 51 53 54 54 56 57 58 57 58 60 61 62 62 60 60 61 61 64 66 66 63 60 57 54
43 41 45 43 43 47 46 50 52 53 52 53 56 56 56 57 60 60 62 62 61 60 60 62 63 65 66 63 60 56 55 55
47 50 52 50 50 51 50 53 53 51 51 54 55 55 56 58 58 60 61 61 60 59 61 62 64 63 60 58 56 58 61 63
52 57 58 59 55 52 58 57 54 53 54 55 56 58 56 57 58 60 61 60 59 59 60 62 63 62 58 58 61 64 66 65
57 63 64 61 60 60 62 59 55 56 56 56 58 57 56 57 57 58 57 57 58 59 60 61 59 58 61 62 64 61 49 41
62 63 67 66 65 64 63 58 58 54 54 54 53 54 55 56 55 54 55 57 57 59 61 59 58 61 63 60 47 41 39 35
58 62 66 66 63 64 62 61 59 56 52 52 51 53 53 53 52 54 54 57 58 58 58 58 61 61 57 40 39 36 33 33
63 62 59 62 60 55 55 56 54 50 51 50 51 50 50 51 53 53 55 58 58 57 56 59 61 57 41 38 37 36 35 36
58 58 58 57 55 52 52 54 54 50 50 51 48 48 50 50 52 54 57 57 56 56 58 58 57 42 40 39 40 38 39 40
56 57 56 54 48 48 55 56 48 47 49 48 47 49 50 51 54 56 56 56 56 58 58 54 44 40 42 42 42 44 45 46
57 53 51 50 47 49 52 50 45 46 48 47 46 47 50 53 55 54 55 55 58 58 53 43 41 45 45 46 47 48 50 52
46 47 46 49 52 52 49 43 43 47 46 44 46 50 52 53 52 53 54 57 58 53 43 42 46 47 47 48 49 51 52 54
49 43 41 47 48 48 42 42 44 43 45 45 48 50 51 50 52 54 56 56 54 44 42 45 48 49 49 50 50 51 53 57
Wind_Direction
263 262 264 267 273 280 282 283 287 289 292 297 302 305 304 305 305 303 302 300 300 299 299 299 299 302 304 304 304 302 300 296
270 268 266 269 275 281 282 284 285 287 292 299 302 304 305 305 306 305 303 301 300 300 301 302 305 306 306 303 300 299 299 297
274 275 272 275 278 280 281 282 283 287 295 298 302 304 304 304 304 301 300 299 299 301 304 306 305 305 301 301 300 298 295 294
272 275 276 275 276 279 280 281 282 288 294 298 300 301 302 302 300 298 298 297 301 304 305 304 302 300 300 298 297 296 295 293
274 273 274 273 274 277 279 281 284 290 295 298 299 299 299 299 298 298 299 301 304 304 303 300 300 301 300 299 299 298 295 293
271 269 270 273 275 279 282 286 290 293 296 297 297 297 297 297 298 300 302 305 306 304 302 302 300 299 300 300 301 299 298 294
274 274 275 274 278 283 286 289 292 295 296 295 295 296 297 298 300 303 305 304 303 302 300 300 300 301 303 304 302 300 298 295
282 277 275 277 284 286 289 293 298 298 294 293 295 296 297 298 301 302 302 301 300 301 300 300 302 305 305 304 303 300 298 296
277 278 282 286 289 292 296 299 299 296 296 296 296 296 297 299 300 300 299 299 300 301 301 303 305 305 305 303 301 301 299 297
273 278 285 287 291 294 296 296 298 295 295 296 297 295 296 297 297 298 298 300 301 300 303 306 307 306 304 303 303 302 299 298
274 280 284 288 292 296 295 297 295 293 294 296 295 293 294 295 296 297 299 300 300 303 306 307 307 306 305 305 304 303 303 303
275 280 282 286 289 291 293 292 296 292 294 295 292 293 294 295 296 298 299 301 304 307 307 307 307 307 307 307 303 300 300 299
272 276 281 284 285 288 291 292 292 290 290 289 292 293 294 296 296 298 302 304 307 307 306 307 308 309 308 301 297 299 301 303
269 276 279 280 285 286 290 289 289 289 289 290 293 294 294 295 298 303 305 305 305 305 307 309 310 310 303 298 294 297 300 302
273 277 280 284 284 288 286 290 287 285 286 290 291 293 295 298 302 304 305 304 304 306 308 310 310 303 300 296 295 296 298 300
275 281 284 284 286 286 291 289 282 283 285 289 291 294 297 302 303 304 303 303 304 307 310 310 305 301 298 297 297 298 298 299
282 285 286 284 283 286 284 283 286 284 287 289 294 298 300 300 302 302 302 304 306 309 310 305 303 303 301 298 299 300 299 300
282 282 282 283 283 282 280 284 281 285 288 295 298 297 298 300 301 302 303 305 308 309 306 304 305 306 304 302 303 302 302 302
283 286 281 279 283 283 280 279 282 289 292 294 295 296 300 300 301 302 304 307 308 305 303 305 307 308 306 304 304 303 304 306